SCP
0 0 0 0 0 0 0 0 0 0 0 0 0 0 -0 -0 0 0 0 0 0 0 0 0 0 0 0 0 0 0 0 0 0 0 0 0 0 0 0 0 0 0 0 0 0 0 0 0 0
0 0 0 0 0 0 0 0 0 0 0 0 0 0 0 0 0 0 0 0 0 0 0 0 0 0 0 0 0 0 0 0 0 0 0 0 0 0 0 0 0 0 0 0 0 0 0 0 0
0 0 -0 -0 0 0 0 0 0 0 0 0 0 0 0 0 0 0 0 0 0 0 0 0 0 0 0 0 0 0 0 0 0 0 0 0 0 0 0 0 0 0 0 0 0 0 0 0 0
0 0 -0 -0 0 0 0 0 0 0 0 0 0 0 0 0 0 0 0 0 0 0 0 0 0 0 0 0 0 0 0 0 0 0 0 0 0 0 0 0 0 0 0 0 0 0 0 0 0
0 0 -0 0 0 0 0 0 0 0 0 0 0 0 0 0 0 0 0 0 0 0 0 0 0 0 0 0 0 0 0 0 0 0 0 0 0 0 0 0 0 0 0 0 0 0 0 0 0
0 0 0 0 0 0 0 0 0 0 0 0 0 0 0 0 0 0 0 0 0 0 0 0 0 0 0 0 0 0 0 0 0 0 0 0 0 0 0 0 0 0 0 0 0 0 0 0 0
0 0 0 0 0 0 0 0 0 0 0 0 0 0 0 0 0 0 0 0 0 0 0 0 0 0 0 0 0 0 0 0 0 0 0 0 0 0 0 0 0 0 0 0 0 0 0 0 0
0 0 0 0 0 0 0 0 0 0 0 0 1 1 1 1 0 0 0 0 0 0 0 0 0 0 0 0 0 0 0 0 0 0 0 0 0 0 0 0 0 0 0 0 0 0 0 0 0
0 0 0 0 0 0 0 0 0 0 1 1 1 1 1 1 1 1 0 0 0 0 0 0 0 0 0 0 0 0 0 0 0 0 0 0 0 0 0 0 0 0 0 0 0 0 0 0 0
0 0 0 0 0 0 0 0 0 0 1 1 1 1 1 1 1 1 1 0 0 0 0 0 0 0 0 0 0 0 0 0 0 0 0 0 0 0 0 0 0 0 0 0 0 0 0 0 0
0 0 0 0 0 0 0 0 0 1 1 1 1 1 1 1 1 1 1 0 0 0 0 0 0 0 0 0 0 0 0 0 0 0 1 1 1 1 1 1 1 1 1 1 1 1 0 0 0
0 0 0 0 0 0 0 0 0 1 1 1 1 1 1 1 1 1 1 1 0 0 0 0 0 0 0 0 0 0 1 1 1 1 1 1 1 1 1 1 1 1 1 1 1 1 1 1 1
0 0 0 0 0 0 0 0 1 1 1 1 1 1 1 1 1 1 1 1 1 1 1 1 0 0 0 1 1 1 1 1 1 1 1 1 1 1 1 1 1 1 1 1 1 1 1 1 1
0 0 0 0 0 0 0 0 1 1 1 1 1 1 1 1 1 1 1 1 1 1 1 1 1 1 1 1 1 1 1 1 1 1 1 1 1 1 1 1 1 1 1 1 1 1 1 1 1
0 0 0 0 0 0 0 0 1 1 1 1 1 1 1 1 1 1 1 1 1 1 1 1 1 1 1 1 1 1 1 1 1 1 1 1 1 1 1 1 1 1 1 1 1 1 1 1 1
0 0 0 0 0 0 0 0 0 1 1 1 1 1 1 1 1 1 1 1 1 1 1 1 1 1 1 1 1 0 0 0 0 0 0 0 0 1 1 1 1 1 1 1 1 1 1 1 1
0 0 0 0 0 0 0 0 0 1 1 1 1 1 1 1 1 1 1 1 1 1 1 1 1 1 0 0 0 0 0 0 0 0 0 0 0 0 0 0 0 0 0 0 0 0 0 0 1
0 0 0 0 0 0 0 0 0 0 1 1 1 1 1 1 1 1 1 1 1 1 1 1 1 0 0 0 0 0 0 0 0 0 0 0 0 0 0 0 0 0 0 0 0 0 0 0 0
0 0 0 0 0 0 0 0 0 0 0 1 1 1 1 1 0 0 0 0 0 0 0 1 0 0 0 0 0 0 0 0 0 0 0 0 0 0 0 0 0 0 0 0 0 0 0 0 0
0 0 0 0 0 0 0 0 0 0 0 0 0 0 0 0 0 0 0 0 0 0 0 0 0 0 0 0 0 0 0 0 0 0 0 0 0 0 0 0 0 0 0 0 0 0 0 0 0
0 0 0 0 0 0 0 0 0 0 0 0 0 0 0 0 0 0 0 0 0 0 0 0 0 0 0 0 0 0 0 0 0 0 0 0 0 0 0 0 0 0 0 0 0 0 0 0 0
0 0 0 0 0 0 0 0 0 0 0 0 0 0 0 0 0 0 0 0 0 0 0 0 0 0 0 0 0 0 0 0 0 0 0 0 0 0 0 0 0 0 0 0 0 0 0 0 0
0 0 0 0 0 0 0 0 0 0 0 0 0 0 0 0 0 0 0 0 0 0 0 0 0 1 0 0 0 0 0 0 0 0 0 0 0 0 0 0 0 0 0 0 0 0 0 0 0
0 0 0 0 0 0 0 0 0 0 0 0 0 0 0 0 0 0 0 0 0 0 0 0 0 0 0 0 0 0 0 0 0 0 0 0 0 0 0 0 0 0 0 0 0 0 0 0 0
0 0 0 0 0 0 0 0 0 0 0 0 0 0 0 0 0 0 0 0 0 0 0 0 0 0 0 0 0 0 0 0 0 0 0 0 0 0 0 0 0 0 0 0 0 0 0 0 0
0 0 0 0 0 0 0 0 0 0 0 0 0 0 0 0 0 0 0 0 0 0 0 0 0 0 0 0 0 0 0 0 0 0 0 0 0 0 0 0 0 0 0 0 0 0 0 0 0
0 0 0 0 0 0 0 0 0 0 0 0 0 0 0 0 0 0 0 0 0 0 0 0 0 0 0 0 0 0 0 0 0 0 0 0 0 0 0 0 0 0 0 0 0 0 0 0 0
0 0 0 0 0 0 0 0 0 0 0 0 0 0 0 0 0 0 0 0 0 0 0 0 0 0 0 0 0 0 0 0 0 0 0 0 0 0 0 0 0 0 0 0 0 0 0 0 0
0 0 0 0 0 0 0 0 0 0 0 0 0 0 0 0 0 0 0 0 0 0 0 0 0 0 0 0 0 0 0 0 0 0 0 0 0 0 0 0 0 0 0 0 0 0 0 0 0
0 0 0 -0 -0 0 0 0 0 0 0 0 0 0 0 0 0 0 0 0 0 0 0 0 0 0 0 0 0 0 0 0 0 0 0 0 0 0 0 0 0 0 0 0 0 0 0 0 0
Wind_Speed
14 12 7 5 7 6 3 5 4 6 5 5 4 3 4 6 6 7 8 15 16 17 18 18 13 12 12 11 11 12 12 11 12 12 12 11 10 10 9 8 7 6 6 6 6 6 6 7 8
12 9 6 6 8 2 5 5 7 7 4 2 3 2 4 8 8 9 10 14 17 17 17 16 16 13 12 12 11 11 12 11 11 11 11 10 10 9 8 8 7 6 5 5 5 5 6 6 7
10 8 6 6 5 3 4 6 7 5 2 0 2 5 5 7 7 7 11 17 17 16 15 16 16 14 13 12 12 12 12 11 11 10 10 9 8 8 7 7 6 5 5 5 5 5 5 6 6
7 7 6 8 6 2 4 7 7 4 2 1 3 7 8 7 4 9 15 17 17 16 15 17 15 15 13 13 12 12 11 11 10 9 9 8 7 7 6 6 5 5 4 5 5 5 5 5 5
7 6 8 9 5 2 3 7 6 3 2 2 4 8 9 6 8 14 16 17 16 15 15 18 15 15 14 13 12 12 11 11 10 9 8 7 6 6 5 5 4 3 3 4 4 4 4 4 5
6 6 10 8 2 2 3 6 5 3 3 3 5 9 9 7 11 14 15 15 15 14 15 17 15 14 14 13 12 12 11 11 10 9 8 7 6 5 5 4 4 3 3 4 4 4 4 4 4
7 7 9 8 5 2 4 6 5 3 3 3 3 7 10 10 11 12 13 13 13 13 13 14 15 14 13 12 11 11 11 10 10 9 8 7 7 6 5 5 4 4 4 4 5 5 5 5 5
6 7 9 7 6 3 4 5 4 3 4 3 1 6 11 13 12 12 12 11 12 11 11 11 12 12 12 12 12 10 10 9 9 9 8 8 7 7 7 8 7 6 5 5 6 6 7 7 7
6 8 7 5 5 3 4 5 3 2 4 4 5 7 14 17 14 13 12 11 10 9 9 10 10 10 9 9 11 11 10 9 9 9 9 8 7 7 8 7 5 6 7 7 7 7 8 8 9
6 7 5 5 7 7 6 5 3 2 5 7 10 13 16 16 14 14 13 13 12 11 10 8 8 8 7 6 7 6 7 7 7 5 6 6 4 3 5 4 5 7 8 8 9 8 9 10 8
6 6 6 7 7 8 7 3 2 3 3 5 8 14 15 15 13 12 12 12 11 10 9 8 7 6 6 4 4 3 2 3 4 4 4 3 3 3 4 3 4 6 8 7 6 8 8 8 6
6 6 7 9 8 8 6 2 1 3 4 5 7 13 13 13 12 11 10 10 10 9 8 7 7 6 4 3 2 3 3 2 3 3 4 3 3 4 3 3 4 4 3 4 4 4 6 7 8
8 7 5 6 5 4 2 1 2 5 7 8 11 11 11 11 10 9 8 8 9 9 8 7 5 5 5 4 3 3 2 3 3 2 3 4 4 4 4 3 4 4 3 4 4 5 6 7 8
5 6 6 5 2 1 3 4 3 6 7 9 10 10 9 9 9 9 8 8 8 8 7 6 6 5 4 3 3 3 2 2 2 2 3 4 4 3 4 4 4 4 4 4 4 6 6 6 6
7 8 5 1 1 3 5 5 4 5 6 9 10 9 8 8 7 7 7 7 8 8 7 7 5 5 4 3 3 3 3 3 2 1 2 3 4 3 4 4 4 3 4 4 5 6 6 6 7
8 9 4 4 1 3 8 5 7 5 7 8 9 9 8 6 6 6 6 6 7 7 7 6 5 5 4 3 2 2 2 1 1 1 1 2 3 3 4 3 3 2 4 4 4 5 6 6 6
6 5 3 4 2 2 6 5 7 5 7 8 8 8 8 8 7 6 6 7 6 6 6 6 4 4 4 3 2 2 1 1 1 1 1 1 2 3 3 2 1 3 3 4 5 4 5 6 7
7 6 4 3 4 2 2 6 7 5 5 7 7 8 8 8 7 6 6 6 6 6 6 6 5 4 4 4 3 2 1 1 1 1 1 2 2 3 4 3 2 4 4 3 3 5 5 6 6
6 5 3 4 3 1 4 5 5 5 5 6 6 7 7 7 7 7 6 6 6 6 6 6 5 5 4 3 2 2 2 2 2 2 2 3 3 3 4 5 3 4 4 4 5 5 6 6 5
4 3 1 5 3 1 5 6 5 4 5 5 5 5 6 7 7 7 7 7 7 6 6 6 6 5 5 3 2 2 2 3 2 3 2 4 4 4 5 4 5 4 4 5 5 5 7 7 5
2 4 2 2 5 5 6 6 6 5 5 5 5 5 6 6 8 8 7 7 7 7 6 5 5 4 4 3 3 2 3 4 4 3 3 4 5 5 5 5 6 5 7 5 5 6 7 7 7
1 2 1 4 5 4 5 3 7 8 8 8 8 8 8 7 7 7 7 7 7 7 6 5 5 4 3 4 4 5 5 5 4 4 4 4 5 6 6 6 6 6 7 6 7 7 6 8 8
3 2 3 4 3 3 4 3 6 8 9 10 10 10 9 8 7 7 6 6 5 6 5 5 4 4 3 3 3 5 6 5 5 5 5 6 6 6 6 6 6 6 7 7 7 7 8 8 9
7 6 5 6 6 2 1 3 5 7 9 11 11 10 9 8 7 6 6 6 5 5 5 5 4 3 3 3 3 4 5 6 7 7 7 7 6 5 6 6 6 7 7 6 7 7 9 8 9
6 6 4 4 2 3 3 3 3 6 7 9 11 11 9 8 7 7 6 6 5 5 4 3 3 3 3 3 3 4 5 6 7 7 7 7 7 6 4 6 6 7 6 7 8 8 9 9 9
5 7 6 6 4 3 4 1 4 6 7 8 9 9 9 9 8 7 6 6 5 5 4 3 3 2 2 3 3 3 5 6 6 5 7 8 7 6 6 6 7 7 8 8 7 9 9 8 9
3 3 5 4 2 1 3 3 5 7 9 10 10 10 10 9 8 8 7 6 5 5 4 3 3 2 3 3 3 4 4 5 6 6 7 7 5 7 7 8 8 8 8 8 9 9 9 9 10
5 2 3 5 4 2 2 2 3 9 11 12 12 11 10 10 9 7 6 6 5 5 4 3 2 2 3 4 4 4 4 5 6 7 7 7 8 8 8 9 9 9 9 9 9 10 9 9 10
5 5 4 4 5 6 2 4 5 6 9 11 12 11 10 10 8 7 6 6 5 5 4 4 3 3 4 4 4 5 5 6 7 7 7 7 8 8 9 9 10 10 10 10 9 11 11 11 11
5 3 4 5 3 4 5 3 7 6 8 9 9 10 10 9 8 7 7 6 6 5 4 4 3 4 4 4 4 5 6 6 7 8 8 8 8 9 10 10 10 11 11 10 11 12 11 12 12
Wind_Direction
167 178 200 226 240 232 62 53 20 10 28 30 30 15 30 29 4 58 112 142 141 142 139 147 148 146 141 135 133 135 138 141 145 148 148 148 148 149 148 147 147 145 137 125 114 107 102 102 105
169 176 210 238 261 237 93 46 22 16 27 40 69 74 71 68 55 95 133 139 145 142 144 151 145 147 142 136 131 131 132 135 138 142 145 145 146 148 150 151 151 151 144 133 125 116 110 109 111
169 207 248 252 259 316 30 26 9 2 21 217 88 57 51 64 89 118 136 146 146 140 142 139 149 149 146 141 135 133 132 134 136 139 142 144 147 150 153 153 157 159 151 143 133 123 119 119 120
189 216 234 252 254 2 344 350 346 337 64 106 126 98 84 52 75 123 140 148 144 144 147 140 153 150 149 145 141 138 136 137 138 140 143 148 152 156 161 164 169 171 163 152 144 137 133 132 132
234 250 247 246 253 351 335 346 336 323 32 110 133 110 92 67 99 128 144 149 150 150 146 143 153 152 152 151 148 145 144 144 145 148 151 156 161 166 169 170 174 172 168 160 154 153 153 152 150
230 248 256 257 254 323 349 1 339 11 78 106 126 116 92 108 122 136 146 153 153 151 149 141 152 155 157 157 155 154 153 154 155 158 162 167 173 181 186 190 194 197 188 177 174 176 174 177 175
266 266 271 281 286 280 16 356 358 14 80 82 118 116 116 124 127 138 144 151 154 154 147 150 158 159 161 161 162 162 163 164 166 169 173 179 185 191 199 206 214 216 210 200 197 197 197 200 199
282 270 260 260 271 291 19 351 11 0 74 70 111 132 133 131 133 132 139 149 154 155 154 157 162 160 167 168 168 170 172 175 178 182 185 190 196 204 208 215 206 223 227 224 219 218 214 211 213
255 255 265 283 291 316 357 339 17 21 106 91 61 69 112 128 132 136 142 149 155 160 159 167 161 164 175 175 161 176 179 182 189 191 190 205 218 212 205 221 179 220 234 235 232 230 227 223 216
246 267 304 326 309 311 328 327 341 185 132 113 99 100 121 133 142 148 153 158 163 167 170 165 165 160 178 178 163 189 193 182 209 204 197 213 228 245 259 137 201 235 242 241 235 237 235 233 226
248 285 318 308 306 305 301 313 309 227 132 112 127 134 139 142 150 154 158 162 163 168 172 165 163 165 181 177 183 194 199 190 211 218 223 230 244 241 255 249 214 229 235 242 228 227 239 239 238
257 276 293 302 313 298 294 299 16 26 49 68 125 139 143 151 153 155 156 160 160 170 171 167 163 170 183 191 193 208 211 206 218 212 244 247 250 252 247 250 257 253 253 260 263 258 252 257 259
249 279 301 305 304 299 265 162 100 75 80 97 117 134 143 148 147 146 149 153 156 166 168 161 168 171 180 187 227 221 232 235 230 246 243 252 251 257 260 262 269 267 259 252 257 261 264 261 257
292 286 288 299 304 223 176 130 123 88 104 115 122 131 136 136 140 140 148 154 159 165 164 162 171 175 188 201 229 241 236 234 259 246 257 261 260 260 265 259 259 265 262 268 268 265 264 263 264
273 268 242 182 189 166 181 140 94 103 123 120 120 117 118 125 135 142 148 155 158 160 158 158 164 171 186 207 238 255 259 258 265 279 280 279 272 268 264 262 258 264 265 258 259 265 262 257 256
247 249 233 111 148 176 232 146 110 133 136 123 119 119 120 119 126 131 136 139 145 152 153 158 161 168 177 190 213 241 262 262 282 270 259 276 289 275 270 272 268 277 269 266 263 262 266 264 264
227 288 343 112 86 217 242 117 117 139 137 127 127 128 125 121 116 119 127 130 133 140 143 148 151 159 163 173 180 177 189 259 270 268 276 282 277 277 273 280 288 264 270 276 282 288 288 281 274
340 330 341 41 65 235 182 112 123 137 141 135 136 134 132 129 123 121 121 127 130 136 144 146 153 161 170 171 179 183 186 211 246 263 281 281 273 273 285 262 250 270 272 277 284 288 279 283 281
312 313 346 49 57 213 140 126 130 139 154 146 141 139 136 132 130 130 132 134 139 148 157 162 168 168 183 183 204 205 209 230 237 246 242 255 269 273 274 287 270 268 278 290 287 282 275 271 282
271 277 128 110 102 161 140 134 132 140 156 150 155 158 154 147 146 148 155 156 161 166 175 179 186 186 201 191 224 249 278 266 267 268 244 257 263 268 263 276 276 268 275 264 270 271 285 287 278
285 313 349 127 138 148 163 151 157 160 173 175 177 176 168 168 165 163 166 168 170 178 189 189 186 188 201 202 222 229 241 254 247 254 245 257 268 267 278 274 278 282 273 273 277 276 270 282 281
342 38 188 175 200 157 215 182 167 176 183 187 184 183 180 181 177 175 178 181 184 188 189 190 189 195 198 216 240 259 269 282 296 287 281 273 263 268 268 270 272 275 280 283 269 269 276 270 273
64 132 180 197 215 184 201 227 150 178 189 187 184 185 186 185 184 184 189 188 191 194 194 189 186 191 199 227 242 262 275 289 292 290 279 276 269 263 268 271 275 274 275 283 288 289 276 272 270
138 164 181 213 228 204 152 250 149 169 185 178 178 181 184 184 186 191 192 187 190 192 193 188 184 193 202 227 247 265 288 293 298 293 292 282 277 270 268 270 274 273 279 281 275 277 268 268 276
209 242 240 218 215 83 117 257 107 143 170 178 175 177 183 185 192 191 189 186 184 184 184 184 182 193 208 233 254 268 281 282 277 287 292 292 292 287 287 292 286 284 283 280 279 274 278 272 266
234 282 318 332 3 91 163 241 109 148 167 179 183 182 182 186 185 182 179 180 178 175 171 175 183 205 236 256 271 278 281 284 295 306 304 297 295 302 314 293 284 283 282 281 280 278 271 267 267
229 269 336 300 289 283 106 131 148 169 184 188 190 191 190 186 181 179 176 177 174 173 171 179 194 233 264 279 273 270 281 296 305 299 280 288 295 290 288 286 284 283 280 279 279 274 277 275 269
306 291 247 295 331 343 114 141 130 175 191 191 194 195 188 183 184 181 178 178 173 170 168 183 210 245 264 264 271 284 290 289 290 291 301 296 292 289 286 281 280 279 278 273 271 273 266 267 268
185 209 259 295 324 317 354 80 96 168 185 192 193 191 188 187 185 179 176 173 173 180 187 200 216 239 255 272 280 290 290 293 291 286 287 288 287 287 281 280 280 279 277 274 270 270 274 268 268
253 254 238 280 289 287 302 83 125 170 183 192 190 184 185 185 182 178 174 176 186 197 210 222 241 255 267 276 280 284 289 290 289 289 292 289 285 283 282 280 278 277 276 275 271 270 271 269 267